Location: Fredericksburg
(30.2750°N, 98.8720°W)
Time: 07:26:42
(UTC-05:00)

PCSat - Visible Passes

Search period start: 02 October 2014 00:00
Search period end: 12 October 2014 00:00
Orbit: 786 x 796 km, 67.1° (Epoch: 01 October)

Date Brightness Start Highest point End Pass type
(mag) Time Alt. Az. Time Alt. Az. Time Alt. Az.
02 Oct 10.3 20:10:04 10° NW 20:15:21 55° WSW 20:20:35 10° S visible
03 Oct 9.8 19:39:24 10° NNW 19:44:50 80° WSW 19:50:13 10° SSE visible
04 Oct 12.9 20:56:17 10° W 20:56:59 10° WSW 20:57:41 10° WSW visible
05 Oct 12.5 20:23:25 10° WNW 20:26:36 16° WSW 20:29:46 10° SW visible
06 Oct 12.2 19:51:59 10° NW 19:56:11 23° WSW 20:00:22 10° SSW visible
10 Oct 11.6 07:12:32 10° S 07:17:20 34° ESE 07:22:10 10° NE visible
11 Oct 12.2 06:42:42 10° SSE 06:46:53 24° ESE 06:51:06 10° NE visible
